Home > Weather > Vitória > Past weeks

Flag for Brazil Weather for the Past 2 Weeks in Vitória, Espírito Santo, Brazil

Now
75 °F

Clear.


Feels Like: 76 °F
Forecast: N/A
Wind: 6 mph from Northeast

Location: Belo Horizonte Airport

Current Time: Feb 13, 2016 at 9:45:12 PM

Latest Report: Feb 13, 2016 at 9:00 PM


Visibility: 10 mi

Pressure: 30.01 "Hg

Humidity: 78%

Dew point: 68 °F

Location of VitóriaLocation

Historic Weather in Vitória — Graph

°F

Vitória Temperature Yesterday

Maximum temperature yesterday: 82 °F (at 2:00 PM)
Minimum temperature yesterday: 66 °F (at 7:00 AM)
Average temperature yesterday: 72 °F

High & Low Weather Summary for the Past Weeks

 TemperatureHumidityPressure
High90 °F (Feb 10, 3:00 PM)100% (Feb 1, 6:00 AM)30.21 "Hg (Feb 1, 6:00 AM)
Low64 °F (Jan 31, 7:00 AM)33% (Feb 2, 3:00 PM)29.92 "Hg (Feb 11, 6:00 PM)
Average76 °F63%30.08 "Hg
* Reported Jan 29 8:00 PM — Feb 13 8:00 PM, Vitória, Weather by CustomWeather, © 2016

Note: Actual official high and low records may vary slightly from our data, if they occured in-between our weather recording intervals... More about our weather records

Advertising

Vitória Weather History for the Previous 24 Hours

 ConditionsComfort  
Time TempWeatherWind HumidityBarometerVisibility
8:00 PM
Sat, Feb 13
75 °FPassing clouds.7 mph78%29.98 "HgN/A
7:00 PM77 °FPassing clouds.2 mph74%29.98 "HgN/A
6:00 PM79 °FScattered clouds.6 mph65%29.95 "HgN/A
5:00 PM77 °FScattered clouds.6 mph74%29.98 "HgN/A
4:00 PM75 °FScattered clouds.2 mph83%29.98 "HgN/A
3:00 PM70 °FLight rain. Partly sunny.2 mph94%N/A2 mi
2:00 PM68 °FStrong thunderstorms. Broken clouds.14 mph94%N/A2 mi
1:00 PM75 °FSprinkles. Partly sunny.9 mph78%30.04 "Hg5 mi
12:00 PM81 °FBroken clouds.7 mph66%30.04 "HgN/A
11:00 AM79 °FBroken clouds.7 mph70%30.04 "HgN/A
10:00 AM75 °FScattered clouds.6 mph74%30.04 "HgN/A
9:00 AM72 °FScattered clouds.7 mph88%30.04 "HgN/A
8:00 AM68 °FBroken clouds.6 mph94%30.01 "HgN/A
7:00 AM66 °FPartly cloudy.3 mph94%29.98 "HgN/A
6:00 AM66 °FPartly cloudy.3 mph100%29.95 "HgN/A
5:00 AM68 °FPartly cloudy.7 mph94%29.98 "HgN/A
4:00 AM70 °FPartly cloudy.6 mph88%29.95 "HgN/A
3:00 AM68 °FPartly cloudy.5 mph100%29.98 "HgN/A
2:00 AM70 °FPartly cloudy.8 mph94%30.01 "HgN/A
1:00 AM68 °FPartly cloudy.2 mph94%30.01 "HgN/A
12:00 AM68 °FPartly cloudy.3 mph94%30.04 "HgN/A
11:00 PM
Fri, Feb 12
70 °FPartly cloudy.2 mph88%30.01 "HgN/A
10:00 PM70 °FPassing clouds.5 mph88%30.01 "HgN/A
9:00 PM70 °FPartly cloudy.3 mph94%30.01 "HgN/A
Weather by CustomWeather, © 2016

See weather overviewHow to use our weather pages